Location: Pinawa
(50.1500°N, 95.8830°W)
Time: 04:26:14
(UTC-06:00)

ISS - All Passes

Search period start: 18 November 2017 00:00
Search period end: 28 November 2017 00:00
Orbit: 401 x 407 km, 51.6° (Epoch: 18 November)

Date Brightness Start Highest point End Pass type
(mag) Time Alt. Az. Time Alt. Az. Time Alt. Az.
18 Nov - 01:22:07 10° W 01:25:23 67° N 01:28:39 10° ENE night (unlit)
18 Nov - 02:58:43 10° WNW 03:02:00 85° NNE 03:05:17 10° ESE night (unlit)
18 Nov - 04:35:24 10° W 04:38:17 29° SSW 04:41:08 10° SSE visible
18 Nov - 22:53:43 10° SW 22:56:44 35° SSE 22:59:45 10° E night (unlit)
19 Nov - 00:29:47 10° W 00:33:04 78° NNW 00:36:21 10° ENE night (unlit)
19 Nov - 02:06:26 10° WNW 02:09:42 71° N 02:12:58 10° E night (unlit)
19 Nov - 03:42:58 10° W 03:46:07 44° SSW 03:49:14 10° SE night (unlit)
19 Nov - 22:01:57 10° SSW 22:04:35 23° SE 22:07:15 10° E night (unlit)
19 Nov - 23:37:29 10° WSW 23:40:46 84° SSE 23:44:02 10° ENE night (unlit)
20 Nov - 01:14:06 10° W 01:17:21 65° N 01:20:37 10° E night (unlit)
20 Nov - 02:50:38 10° WNW 02:53:53 65° SSW 02:57:07 10° ESE night (unlit)
20 Nov - 04:27:50 10° W 04:29:54 16° SW 04:31:58 10° S night (unlit)
20 Nov - 21:10:39 10° S 21:12:31 14° SE 21:14:23 10° ESE night (unlit)
20 Nov - 22:45:15 10° WSW 22:48:30 60° SSE 22:51:44 10° ENE night (unlit)
21 Nov - 00:21:44 10° W 00:25:00 66° N 00:28:16 10° E night (unlit)
21 Nov - 01:58:19 10° WNW 02:01:36 88° SSW 02:04:52 10° ESE night (unlit)
21 Nov - 03:35:03 10° W 03:37:48 25° SW 03:40:31 10° SSE night (unlit)
21 Nov - 21:53:09 10° SW 21:56:15 40° SSE 21:59:21 10° E night (unlit)
21 Nov - 23:29:21 10° W 23:32:38 73° N 23:35:55 10° ENE night (unlit)
22 Nov - 01:05:59 10° WNW 01:09:16 75° NNE 01:12:32 10° E night (unlit)
22 Nov - 02:42:33 10° W 02:45:38 38° SSW 02:48:40 10° SE night (unlit)
22 Nov - 21:01:15 10° SSW 21:04:03 26° SE 21:06:51 10° E night (unlit)
22 Nov - 22:37:00 10° WSW 22:40:16 89° NW 22:43:34 10° ENE night (unlit)
23 Nov - 00:13:37 10° W 00:16:54 66° N 00:20:09 10° E night (unlit)
23 Nov - 01:50:09 10° WNW 01:53:23 57° SSW 01:56:35 10° SE night (unlit)
23 Nov - 03:27:38 10° WSW 03:29:19 13° SW 03:30:59 10° S night (unlit)
23 Nov - 20:09:42 10° S 20:11:55 17° SE 20:14:07 10° E night (unlit)
23 Nov - 21:44:41 10° WSW 21:47:57 68° SSE 21:51:12 10° ENE night (unlit)
23 Nov - 23:21:14 10° W 23:24:30 65° N 23:27:45 10° E night (unlit)
24 Nov - 00:57:47 10° WNW 01:01:04 80° SSW 01:04:20 10° ESE night (unlit)
24 Nov - 02:34:39 10° W 02:37:13 21° SW 02:39:45 10° SSE night (unlit)
24 Nov - 19:19:15 10° SE 19:19:49 10° SE 19:20:24 10° SE night (unlit)
24 Nov - 20:52:30 10° SW 20:55:39 46° SSE 20:58:49 10° ENE night (unlit)
24 Nov - 22:28:48 10° W 22:32:05 70° N 22:35:21 10° ENE night (unlit)
25 Nov - 00:05:25 10° WNW 00:08:42 80° NNE 00:11:59 10° E night (unlit)
25 Nov - 01:42:02 10° W 01:45:01 33° SSW 01:47:59 10° SE night (unlit)
25 Nov - 20:00:28 10° SSW 20:03:24 30° SSE 20:06:20 10° E night (unlit)
25 Nov - 21:36:24 10° WSW 21:39:41 83° NNW 21:42:58 10° ENE night (unlit)
25 Nov - 23:13:02 10° WNW 23:16:18 68° N 23:19:34 10° E night (unlit)
26 Nov - 00:49:34 10° WNW 00:52:45 50° SSW 00:55:56 10° SE night (unlit)
26 Nov - 02:27:33 10° WSW 02:28:37 11° SW 02:29:41 10° SSW night (unlit)
26 Nov - 19:08:44 10° S 19:11:12 20° SE 19:13:40 10° E visible
26 Nov - 20:44:01 10° WSW 20:47:18 76° SSE 20:50:35 10° ENE night (unlit)
26 Nov - 22:20:36 10° W 22:23:52 64° N 22:27:08 10° E night (unlit)
26 Nov - 23:57:09 10° WNW 00:00:25 72° SSW 00:03:40 10° ESE night (unlit)
27 Nov - 01:34:09 10° W 01:36:29 18° SW 01:38:49 10° S night (unlit)
27 Nov - 18:17:36 10° SSE 18:19:03 12° SE 18:20:30 10° ESE visible
27 Nov - 19:51:45 10° SW 19:54:57 53° SSE 19:58:10 10° ENE visible
27 Nov - 21:28:08 10° W 21:31:25 67° N 21:34:41 10° ENE night (unlit)
27 Nov - 23:04:44 10° WNW 23:08:02 86° NNE 23:11:18 10° ESE night (unlit)
